Bangkok (Suvarnabhumi), Thailand

1:46 PM +07 on December 07, 2019 (GMT +0700)
Bangkok (Suvarnabhumi)

Weather History for VTBS - October, 2019

Change the Weather History Date:

Tuesday, October 1, 2019

  Actual Average (WUND) Record (WUND)
Temperature  
Mean Temperature 88 °F -  
Max Temperature 94 °F 90 °F - (-1)
Min Temperature 81 °F 75 °F - (-1)
Cooling Degree Days 22    
Growing Degree Days 38 (Base 50)    
Moisture  
Dew Point 77 °F    
Average Humidity 75    
Maximum Humidity 84    
Minimum Humidity 53    
Precipitation  
Precipitation 0.00 in 0.27 in - ()
Sea Level Pressure  
Sea Level Pressure 29.82 in    
Wind  
Wind Speed 8 mph ()    
Max Wind Speed 15 mph    
Max Gust Speed -    
Visibility 5.2 miles    
Events Rain , Thunderstorm    
Averages and records for this station are not official NWS values.
T = Trace of Precipitation, MM = Missing Value Source: Averaged Metar Reports

Daily Weather History Graph

Daily Weather History Graph

Search for Another Location

Airport or City:

Astronomy

Oct. 01, 2019 Rise Set
Actual Time 6:05 AM +07 6:06 PM +07
Civil Twilight 5:44 AM +07 6:27 PM +07
Nautical Twilight 5:19 AM +07 6:52 PM +07
Astronomical Twilight 4:54 AM +07 7:16 PM +07
Moon 8:22 AM +07 (10/1) 8:25 PM +07 (10/1)
Length of Visible Light 12h 43m
Length of Day
12h 00m
Waxing Crescent, 9% of the Moon is Illuminated
Oct 1
Waxing Crescent
Oct 5
First Quarter
Oct 14
Full
Oct 21
Last Quarter
Oct 28
New

Hourly Weather History & Observations

Time (+07) Temp. Heat Index Dew Point Humidity Pressure Visibility Wind Dir Wind Speed Gust Speed Precip Events Conditions
12:30 AM 84.2 °F 94.1 °F 77.0 °F 79% 29.86 in 5.0 mi South 8.1 mph - N/A   Scattered Clouds
1:00 AM 84 °F - 78 °F 78% 29.84 in 2 mi South 5.8 mph - -   Mist
1:00 AM 84.2 °F 94.1 °F 77.0 °F 79% 29.83 in 5.0 mi SSW 8.1 mph - N/A   Mostly Cloudy
1:30 AM 84.2 °F 96.1 °F 78.8 °F 84% 29.83 in 5.0 mi SSW 8.1 mph - N/A   Mostly Cloudy
2:00 AM 84.2 °F 96.1 °F 78.8 °F 84% 29.83 in 5.0 mi SSW 9.2 mph - N/A   Mostly Cloudy
2:30 AM 82.4 °F 90.9 °F 77.0 °F 84% 29.83 in 5.0 mi South 10.4 mph - N/A   Mostly Cloudy
3:00 AM 82.4 °F 90.9 °F 77.0 °F 84% 29.80 in 5.0 mi SSW 8.1 mph - N/A   Mostly Cloudy
3:30 AM 84.2 °F 94.1 °F 77.0 °F 79% 29.80 in 5.0 mi South 8.1 mph - N/A   Mostly Cloudy
4:00 AM 83 °F - 78 °F 82% 29.82 in 2 mi SSE 2.3 mph - -   Mist
4:00 AM 84.2 °F 94.1 °F 77.0 °F 79% 29.80 in 5.0 mi South 6.9 mph - N/A   Scattered Clouds
4:30 AM 84.2 °F 96.1 °F 78.8 °F 84% 29.80 in 5.0 mi SSE 6.9 mph - N/A   Scattered Clouds
5:00 AM 82.4 °F 89.5 °F 75.2 °F 79% 29.83 in 4.3 mi SSW 15.0 mph - N/A Rain , Thunderstorm Light Thunderstorms and Rain
5:30 AM 78.8 °F - 73.4 °F 83% 29.83 in 5.0 mi WSW 8.1 mph - N/A Rain , Thunderstorm Light Thunderstorms and Rain
6:00 AM 80.6 °F 85.4 °F 73.4 °F 79% 29.83 in 5.0 mi Variable 5.8 mph - N/A Rain , Thunderstorm Light Thunderstorms and Rain
6:30 AM 80.6 °F 84.6 °F 71.6 °F 74% 29.86 in 5.0 mi SSE 6.9 mph - N/A   Mostly Cloudy
7:00 AM 83 °F - 79 °F 84% 29.85 in 2 mi Calm Calm - -   Mist
7:00 AM 82.4 °F 88.2 °F 73.4 °F 74% 29.86 in 5.0 mi SSE 9.2 mph - N/A   Scattered Clouds
7:30 AM 84.2 °F 90.9 °F 73.4 °F 70% 29.86 in 5.6 mi SSE 11.5 mph - N/A   Scattered Clouds
8:00 AM 84.2 °F 90.9 °F 73.4 °F 70% 29.86 in 5.6 mi SSE 9.2 mph - N/A   Scattered Clouds
9:00 AM 87.8 °F 97.6 °F 75.2 °F 66% 29.89 in 5.6 mi South 9.2 mph - N/A   Partly Cloudy
9:30 AM 87.8 °F 99.7 °F 77.0 °F 70% 29.89 in 5.6 mi SSW 9.2 mph - N/A   Partly Cloudy
10:00 AM 90 °F - 79 °F 63% 29.88 in 5 mi Calm Calm - -   Mist
10:00 AM 87.8 °F 99.7 °F 77.0 °F 70% 29.89 in 5.6 mi South 10.4 mph - N/A   Partly Cloudy
10:30 AM 89.6 °F 102.2 °F 77.0 °F 66% 29.89 in 5.6 mi South 11.5 mph - N/A   Scattered Clouds
11:30 AM 89.6 °F 102.2 °F 77.0 °F 66% 29.86 in 5.6 mi South 12.7 mph - N/A   Partly Cloudy
12:00 PM 89.6 °F 102.2 °F 77.0 °F 66% 29.86 in 5.6 mi South 12.7 mph - N/A   Partly Cloudy
12:30 PM 89.6 °F 102.2 °F 77.0 °F 66% 29.83 in 5.6 mi SSW 11.5 mph - N/A   Partly Cloudy
1:00 PM 92 °F - 77 °F 53% 29.82 in 6 mi WNW 9.2 mph - -   Scattered Clouds
1:00 PM 89.6 °F 102.2 °F 77.0 °F 66% 29.83 in 5.6 mi SSW 11.5 mph - N/A   Partly Cloudy
1:30 PM 89.6 °F 104.7 °F 78.8 °F 70% 29.80 in 5.6 mi South 11.5 mph - N/A   Partly Cloudy
2:00 PM 89.6 °F 102.2 °F 77.0 °F 66% 29.80 in 5.6 mi South 12.7 mph - N/A   Partly Cloudy
2:30 PM 89.6 °F 102.2 °F 77.0 °F 66% 29.77 in 5.6 mi South 11.5 mph - N/A   Partly Cloudy
3:00 PM 89.6 °F 102.2 °F 77.0 °F 66% 29.77 in 5.6 mi South 11.5 mph - N/A   Partly Cloudy
3:30 PM 89.6 °F 102.2 °F 77.0 °F 66% 29.77 in 5.6 mi South 12.7 mph - N/A   Partly Cloudy
4:00 PM 87.8 °F 99.7 °F 77.0 °F 70% 29.77 in 5.6 mi South 12.7 mph - N/A   Partly Cloudy
4:30 PM 87.8 °F 99.7 °F 77.0 °F 70% 29.77 in 5.6 mi SSW 10.4 mph - N/A   Partly Cloudy
5:00 PM 86.0 °F 96.9 °F 77.0 °F 74% 29.77 in 5.6 mi South 12.7 mph - N/A   Partly Cloudy
5:30 PM 86.0 °F 96.9 °F 77.0 °F 74% 29.77 in 5.6 mi South 11.5 mph - N/A   Scattered Clouds
6:00 PM 86.0 °F 99.3 °F 78.8 °F 79% 29.77 in 5.6 mi South 8.1 mph - N/A   Scattered Clouds
6:30 PM 84.2 °F 96.1 °F 78.8 °F 84% 29.77 in 5.6 mi South 10.4 mph - N/A   Partly Cloudy
7:00 PM 88 °F - 79 °F 68% 29.79 in 6 mi Calm Calm - -   Partly Cloudy
7:00 PM 84.2 °F 94.1 °F 77.0 °F 79% 29.80 in 5.6 mi South 11.5 mph - N/A   Scattered Clouds
7:30 PM 84.2 °F 96.1 °F 78.8 °F 84% 29.80 in 5.6 mi SSW 6.9 mph - N/A   Scattered Clouds
8:00 PM 84.2 °F 94.1 °F 77.0 °F 79% 29.80 in 5.6 mi SSW 9.2 mph - N/A   Scattered Clouds
8:30 PM 84.2 °F 94.1 °F 77.0 °F 79% 29.83 in 5.6 mi SSW 9.2 mph - N/A   Partly Cloudy
9:00 PM 84.2 °F 94.1 °F 77.0 °F 79% 29.83 in 5.6 mi SSW 9.2 mph - N/A   Partly Cloudy
9:30 PM 84.2 °F 94.1 °F 77.0 °F 79% 29.86 in 5.6 mi South 11.5 mph - N/A   Partly Cloudy
10:00 PM 84 °F - 78 °F 77% 29.70 in 6 mi South 4.6 mph - -   Partly Cloudy
10:00 PM 84.2 °F 94.1 °F 77.0 °F 79% 29.86 in 5.6 mi South 10.4 mph - N/A   Partly Cloudy
10:30 PM 84.2 °F 96.1 °F 78.8 °F 84% 29.86 in 5.6 mi South 10.4 mph - N/A   Partly Cloudy
11:00 PM 82.4 °F 90.9 °F 77.0 °F 84% 29.86 in 5.6 mi SSW 8.1 mph - N/A   Partly Cloudy
11:30 PM 82.4 °F 90.9 °F 77.0 °F 84% 29.86 in 5.6 mi South 8.1 mph - N/A   Partly Cloudy